KB4QOR Weather Reports


Display with metric or nautical units.
time (UTC)temp
F
wind
direction
speed
MPH
gust
MPH
rain 1hr
in
rain 24hr
in
rain mn
in
humidity
%
barometer
mb
20260502163029 53 0 1.0 3.0 0.00 0.00 0.00 68 1018.3
20260502161533 52 0 0.0 2.0 0.00 0.00 0.00 67 1018.5
20260502151536 51 267 0.0 3.0 0.00 0.00 0.00 67 1018.6
20260502123028 44 274 0.0 1.0 0.00 0.00 0.00 69 1017.9
20260502121531 44 0 0.0 2.0 0.00 0.00 0.00 70 1018.0
20260502114556 44 0 0.0 0.0 0.00 0.00 0.00 71 1017.7
20260502113032 44 0 0.0 0.0 0.00 0.00 0.00 71 1017.9
20260502111550 44 0 0.0 0.0 0.00 0.00 0.00 71 1017.6
20260502110036 44 0 0.0 1.0 0.00 0.00 0.00 71 1017.7
20260502104533 44 0 0.0 0.0 0.00 0.00 0.00 71 1017.3
20260502103027 44 0 0.0 0.0 0.00 0.00 0.00 70 1017.2
20260502101535 44 0 0.0 0.0 0.00 0.00 0.00 70 1017.1
20260502091528 46 0 0.0 0.0 0.00 0.00 0.00 68 1017.1
20260502071529 47 0 0.0 0.0 0.00 0.00 0.00 66 1016.9
20260502070052 47 0 0.0 0.0 0.00 0.00 0.00 66 1016.8
20260502064530 47 0 0.0 0.0 0.00 0.00 0.00 66 1017.0
20260502063032 47 0 0.0 0.0 0.00 0.00 0.00 66 1017.1
20260502061531 48 0 0.0 0.0 0.00 0.00 0.00 65 1017.1
20260502060037 48 0 0.0 0.0 0.00 0.00 0.00 65 1017.2
20260502054540 48 0 0.0 0.0 0.00 0.00 0.00 65 1017.5
20260502053027 48 0 0.0 0.0 0.00 0.00 0.00 65 1017.6
20260502051557 48 0 0.0 0.0 0.00 0.00 0.00 64 1017.6
20260502050028 49 0 0.0 0.0 0.00 0.00 0.00 65 1017.7
20260502044531 49 0 0.0 0.0 0.00 0.00 0.00 65 1017.7
20260502043028 49 0 0.0 0.0 0.00 0.00 0.00 65 1017.7
20260502041552 49 0 0.0 0.0 0.00 0.00 0.00 64 1017.8
20260502040046 50 0 0.0 0.0 0.00 0.00 0.00 65 1017.6
20260502034528 50 0 0.0 0.0 0.00 0.00 0.00 65 1017.7
20260502033032 50 0 0.0 0.0 0.00 0.00 0.00 65 1017.8
20260502031528 51 0 0.0 0.0 0.00 0.00 0.00 66 1017.9
20260502030040 51 0 0.0 0.0 0.00 0.00 0.00 66 1018.0
20260502024532 52 0 0.0 0.0 0.00 0.00 0.00 67 1017.8
20260502023142 52 0 0.0 0.0 0.00 0.00 0.00 69 1017.8
20260502023042 52 0 0.0 0.0 0.00 0.00 0.00 69 1017.8
20260502021527 53 0 0.0 0.0 0.00 0.00 0.00 69 1017.6
20260502020104 53 0 0.0 0.0 0.00 0.00 0.00 71 1017.5
20260502020028 53 0 0.0 0.0 0.00 0.00 0.00 71 1017.5
20260502014535 54 0 0.0 0.0 0.00 0.00 0.00 71 1017.2
20260502013032 54 0 0.0 0.0 0.00 0.00 0.00 72 1016.9
20260502011530 55 0 0.0 0.0 0.00 0.00 0.00 72 1016.5
20260502010031 56 0 0.0 0.0 0.00 0.00 0.00 73 1016.2
20260502004530 56 0 0.0 1.0 0.00 0.00 0.00 73 1016.0
20260502003029 57 0 0.0 2.0 0.00 0.00 0.00 73 1015.9
20260502001538 58 0 0.0 1.0 0.00 0.00 0.00 73 1015.8
20260502000049 58 0 0.0 3.0 0.00 0.00 0.00 73 1015.6
20260501234530 59 0 0.0 5.0 0.00 0.00 0.00 72 1015.2
20260501233028 59 273 1.0 4.0 0.00 0.00 0.00 72 1014.7
20260501231530 59 355 0.0 6.0 0.00 0.00 0.00 72 1015.0
20260501224619 59 61 1.0 8.0 0.00 0.00 0.00 72 1014.8
20260501224528 59 61 1.0 8.0 0.00 0.00 0.00 72 1014.8
20260501223030 60 58 1.0 4.0 0.00 0.00 0.00 72 1014.8
20260501221609 60 0 1.0 6.0 0.00 0.00 0.00 72 1014.7
20260501221530 60 0 1.0 6.0 0.00 0.00 0.00 72 1014.7
20260501220027 60 61 0.0 5.0 0.00 0.00 0.00 72 1014.9
20260501214533 61 70 1.0 3.0 0.00 0.00 0.00 72 1014.8
20260501213031 60 0 1.0 3.0 0.00 0.00 0.00 72 1014.8
20260501211528 60 27 1.0 6.0 0.00 0.00 0.00 72 1015.0
20260501210030 60 74 0.0 6.0 0.00 0.00 0.00 72 1014.7
20260501204528 60 40 0.0 8.0 0.00 0.00 0.00 71 1015.2
20260501203028 61 80 1.0 5.0 0.00 0.00 0.00 70 1015.0
20260501201531 62 75 3.0 10.0 0.00 0.00 0.00 70 1015.1
20260501200029 62 0 0.0 8.0 0.00 0.00 0.00 70 1015.1
20260501194528 62 53 1.0 4.0 0.00 0.00 0.00 70 1015.2
20260501193036 62 0 1.0 6.0 0.00 0.00 0.00 70 1015.2
20260501191532 62 70 2.0 8.0 0.00 0.00 0.00 72 1015.2
20260501190030 60 281 2.0 9.0 0.00 0.00 0.00 73 1015.0
20260501184531 58 76 1.0 9.0 0.00 0.00 0.00 73 1014.9
20260501183124 58 46 1.0 4.0 0.00 0.00 0.00 74 1015.1
20260501183030 58 46 1.0 4.0 0.00 0.00 0.00 74 1015.1
20260501181532 57 130 3.0 12.0 0.00 0.00 0.00 75 1015.2
20260501180034 56 94 2.0 7.0 0.00 0.00 0.00 72 1015.0
20260501174537 55 0 0.0 8.0 0.00 0.00 0.00 70 1015.0
20260501173028 54 0 2.0 10.0 0.00 0.00 0.00 70 1015.2
20260501171531 53 11 3.0 11.0 0.00 0.00 0.00 71 1015.0